Weather History for Antigo, WI

Change the Weather History Date:

Wednesday, July 31, 2013

  Actual Average Record
Temperature  
Mean Temperature 63 °F -  
Max Temperature 74 °F 76 °F 93 °F (1975)
Min Temperature 52 °F 54 °F 40 °F (1971)
Degree Days  
Heating Degree Days 2    
Growing Degree Days 13 (Base 50)    
Moisture  
Dew Point 58 °F    
Average Humidity 80    
Maximum Humidity 99    
Minimum Humidity 57    
Precipitation  
Precipitation 0.00 in - - ()
Sea Level Pressure  
Sea Level Pressure 30.02 in    
Wind  
Wind Speed 6 mph (West)    
Max Wind Speed 15 mph    
Max Gust Speed 22 mph    
Visibility 10 miles    
Events Rain    
Averages and records for this station are not official NWS values.
T = Trace of Precipitation, MM = Missing Value Source: NWS Daily Summary

Daily Weather History Graph

Daily Weather History Graph

Search for Another Location

Airport:

Trip Planner

Search our weather history database for the weather conditions in past years. The results will help you decide how hot, cold, wet, or windy it might be!

Date:

Astronomy

Jul. 31, 2013 Rise Set
Actual Time 5:40 AM CDT 8:24 PM CDT
Civil Twilight 5:06 AM CDT 8:58 PM CDT
Nautical Twilight 4:23 AM CDT 9:40 PM CDT
Astronomical Twilight 3:33 AM CDT 10:30 PM CDT
Moon 12:36 AM CDT (7/31) 3:41 PM CDT (7/31)
Length of Visible Light 15h 51m
Length of Day
14h 43m
Waning Crescent, 31% of the Moon is Illuminated
Jul 31
Waning Crescent
Aug 6
New
Aug 14
First Quarter
Aug 20
Full
Aug 28
Last Quarter

Hourly Weather History & Observations

Time (CDT) Temp. Dew Point Humidity Pressure Visibility Wind Dir Wind Speed Gust Speed Precip Events Conditions
12:15 AM 62.6 °F 60.3 °F 92% 30.09 in 10.0 mi South 6.9 mph - N/A   Overcast
12:35 AM 62.6 °F 59.9 °F 91% 30.09 in 10.0 mi SW 4.6 mph - N/A   Overcast
12:55 AM 62.4 °F 59.4 °F 90% 30.09 in 10.0 mi SW 4.6 mph - N/A   Overcast
1:15 AM 62.4 °F 59.2 °F 89% 30.09 in 10.0 mi WSW 4.6 mph - N/A   Overcast
1:35 AM 62.4 °F 59.2 °F 89% 30.08 in 10.0 mi SW 5.8 mph - N/A   Overcast
1:55 AM 62.1 °F 59.2 °F 90% 30.08 in 10.0 mi South 4.6 mph - N/A   Overcast
2:15 AM 61.7 °F 59.4 °F 92% 30.07 in 10.0 mi South 4.6 mph - N/A   Overcast
2:35 AM 61.0 °F 59.2 °F 94% 30.07 in 10.0 mi South 3.5 mph - N/A   Overcast
2:55 AM 61.2 °F 59.2 °F 93% 30.07 in 10.0 mi SSW 5.8 mph - N/A   Overcast
3:15 AM 61.7 °F 59.2 °F 91% 30.08 in 10.0 mi SSW 5.8 mph - N/A   Overcast
3:35 AM 60.8 °F 59.0 °F 94% 30.06 in 10.0 mi South 4.6 mph - N/A   Mostly Cloudy
3:55 AM 59.0 °F 58.1 °F 97% 30.07 in 10.0 mi Calm Calm - N/A   Mostly Cloudy
4:15 AM 58.8 °F 57.9 °F 97% 30.06 in 10.0 mi Calm Calm - N/A   Scattered Clouds
4:35 AM 58.1 °F 57.4 °F 97% 30.06 in 7.0 mi SSW 3.5 mph - N/A   Mostly Cloudy
4:55 AM 58.1 °F 57.6 °F 98% 30.06 in 7.0 mi SSW 3.5 mph - N/A   Overcast
5:15 AM 58.3 °F 58.1 °F 99% 30.06 in 7.0 mi SSW 4.6 mph - N/A   Overcast
5:35 AM 59.0 °F 58.3 °F 97% 30.07 in 7.0 mi Calm Calm - N/A   Overcast
5:55 AM 59.7 °F 59.0 °F 97% 30.07 in 7.0 mi WSW 4.6 mph - N/A   Overcast
6:15 AM 59.9 °F 59.2 °F 97% 30.08 in 7.0 mi SW 4.6 mph - N/A   Overcast
6:35 AM 59.9 °F 59.2 °F 97% 30.08 in 7.0 mi SW 4.6 mph - N/A   Mostly Cloudy
6:55 AM 60.8 °F 59.9 °F 97% 30.07 in 5.0 mi Calm Calm - N/A   Mostly Cloudy
7:15 AM 61.0 °F 59.9 °F 96% 30.06 in 7.0 mi Calm Calm - N/A   Mostly Cloudy
7:35 AM 61.9 °F 60.6 °F 96% 30.06 in 7.0 mi WSW 3.5 mph - N/A   Mostly Cloudy
7:55 AM 63.1 °F 61.3 °F 94% 30.07 in 10.0 mi West 3.5 mph - N/A   Overcast
8:15 AM 63.7 °F 61.9 °F 94% 30.06 in 10.0 mi West 5.8 mph - N/A   Overcast
8:35 AM 64.4 °F 61.7 °F 91% 30.06 in 10.0 mi West 6.9 mph - N/A   Overcast
8:55 AM 65.8 °F 61.7 °F 86% 30.06 in 10.0 mi WNW 9.2 mph - N/A   Overcast
9:15 AM 64.8 °F 61.0 °F 88% 30.06 in 10.0 mi WNW 6.9 mph - N/A   Overcast
9:35 AM 66.9 °F 61.0 °F 81% 30.05 in 10.0 mi NW 5.8 mph - N/A   Mostly Cloudy
9:55 AM 68.4 °F 60.8 °F 77% 30.05 in 10.0 mi NW 6.9 mph - N/A   Mostly Cloudy
10:15 AM 69.3 °F 60.8 °F 74% 30.03 in 10.0 mi WNW 5.8 mph - N/A   Scattered Clouds
10:35 AM 69.8 °F 59.7 °F 70% 30.02 in 10.0 mi Calm Calm - N/A   Scattered Clouds
10:55 AM 71.2 °F 59.4 °F 66% 30.03 in 10.0 mi WNW 5.8 mph - N/A   Clear
11:15 AM 71.8 °F 59.9 °F 66% 30.03 in 10.0 mi WNW 6.9 mph - N/A   Scattered Clouds
11:35 AM 73.8 °F 60.8 °F 64% 30.02 in 10.0 mi WNW 9.2 mph - N/A   Mostly Cloudy
11:55 AM 73.6 °F 60.3 °F 63% 30.02 in 10.0 mi WNW 6.9 mph - N/A   Mostly Cloudy
12:15 PM 72.9 °F 59.4 °F 62% 30.01 in 10.0 mi WNW 5.8 mph - N/A   Mostly Cloudy
12:35 PM 73.8 °F 59.9 °F 62% 30.00 in 10.0 mi WNW 6.9 mph - N/A   Mostly Cloudy
12:55 PM 72.5 °F 59.7 °F 64% 29.99 in 10.0 mi West 12.7 mph - N/A   Mostly Cloudy
1:15 PM 74.1 °F 59.5 °F 60% 29.98 in 10.0 mi West 5.8 mph - N/A   Scattered Clouds
1:35 PM 74.5 °F 59.9 °F 60% 29.98 in 10.0 mi West 11.5 mph - N/A   Mostly Cloudy
1:55 PM 72.5 °F 59.2 °F 63% 29.98 in 10.0 mi West 9.2 mph - N/A   Mostly Cloudy
2:15 PM 72.0 °F 59.2 °F 64% 29.97 in 10.0 mi West 10.4 mph - N/A   Scattered Clouds
2:35 PM 73.0 °F 60.4 °F 65% 29.98 in 10.0 mi West 10.4 mph - N/A   Scattered Clouds
2:55 PM 70.9 °F 60.6 °F 70% 29.98 in 10.0 mi WSW 15.0 mph - N/A   Mostly Cloudy
3:15 PM 67.5 °F 60.4 °F 78% 29.98 in 10.0 mi WSW 10.4 mph - N/A Rain Light Rain
3:35 PM 68.5 °F 61.2 °F 77% 29.98 in 10.0 mi WSW 9.2 mph - N/A   Scattered Clouds
3:55 PM 68.7 °F 62.2 °F 80% 29.98 in 10.0 mi WSW 9.2 mph - N/A   Clear
4:15 PM 68.9 °F 61.9 °F 78% 29.97 in 10.0 mi WSW 10.4 mph - N/A   Clear
4:35 PM 70.7 °F 58.1 °F 64% 29.97 in 10.0 mi West 11.5 mph 17.3 mph N/A   Clear
4:55 PM 72.9 °F 58.1 °F 60% 29.97 in 10.0 mi West 11.5 mph - N/A   Clear
5:15 PM 72.5 °F 57.7 °F 60% 29.96 in 10.0 mi WNW 10.4 mph 18.4 mph N/A   Clear
5:35 PM 71.4 °F 57.6 °F 62% 29.96 in 10.0 mi WNW 11.5 mph - N/A   Clear
5:55 PM 72.0 °F 57.7 °F 61% 29.95 in 10.0 mi West 10.4 mph - N/A   Scattered Clouds
6:15 PM 71.6 °F 58.8 °F 64% 29.95 in 10.0 mi West 8.1 mph 16.1 mph N/A   Scattered Clouds
6:35 PM 71.4 °F 56.1 °F 58% 29.94 in 10.0 mi West 13.8 mph 21.9 mph N/A   Clear
6:55 PM 71.1 °F 56.7 °F 60% 29.94 in 10.0 mi WNW 8.1 mph - N/A   Scattered Clouds
7:15 PM 70.0 °F 54.0 °F 57% 29.94 in 10.0 mi WNW 9.2 mph - N/A   Clear
7:35 PM 68.4 °F 54.7 °F 62% 29.95 in 10.0 mi WNW 4.6 mph - N/A   Scattered Clouds
7:55 PM 65.3 °F 55.0 °F 69% 29.95 in 10.0 mi West 5.8 mph - N/A   Scattered Clouds
8:15 PM 64.0 °F 55.6 °F 74% 29.95 in 10.0 mi West 3.5 mph - N/A   Scattered Clouds
8:35 PM 62.8 °F 55.6 °F 77% 29.96 in 10.0 mi West 4.6 mph - N/A   Scattered Clouds
8:55 PM 61.0 °F 55.6 °F 82% 29.96 in 10.0 mi West 4.6 mph - N/A   Clear
9:15 PM 60.8 °F 55.6 °F 83% 29.96 in 10.0 mi West 5.8 mph - N/A   Clear
9:35 PM 60.3 °F 55.4 °F 84% 29.97 in 10.0 mi West 4.6 mph - N/A   Clear
9:55 PM 58.5 °F 54.5 °F 87% 29.97 in 10.0 mi WNW 3.5 mph - N/A   Clear
10:15 PM 58.8 °F 54.7 °F 86% 29.97 in 10.0 mi West 3.5 mph - N/A   Clear
10:35 PM 53.6 °F 52.2 °F 95% 29.97 in 10.0 mi Calm Calm - N/A   Clear
10:55 PM 54.3 °F 52.5 °F 94% 29.97 in 10.0 mi Calm Calm - N/A   Clear
11:15 PM 52.7 °F 52.0 °F 97% 29.97 in 10.0 mi Calm Calm - N/A   Clear
11:35 PM 53.8 °F 52.5 °F 95% 29.98 in 10.0 mi NW 3.5 mph - N/A   Clear
11:55 PM 52.3 °F 51.4 °F 97% 29.98 in 10.0 mi Calm Calm - N/A   Clear